Date String (YYYY-MM-DD hh:mm:ss) UTC,Instrument flags,Ambient pressure (hPa),Sample flow (lpm),Bypass flow (lpm),Sample temperature (°C),Ambient temperature (°C),ASC tube jacket temperature (°C),LED temperature (°C),Box temperature (°C),Sample RH (%),Span deviation,Mass concentration (μg/m³),Mass concentration (μg/m³),Mass concentration (μg/m³)
DateTimeUTC,F1_M11,P_M11,Q1_M11,Q2_M11,T1_M11,T2_M11,T3_M11,T4_M11,T5_M11,U1_M11,ZSPAN_M11,X2_M11,X0_M11,X1_M11
2022-11-16 12:00:00,,0834.0,5.00,0.00,22.1,20.4,00.0,31.0,23.8,06.5,0000.0,0001.12,0001.43,0001.06
2022-11-16 12:01:00,,0834.0,5.01,0.00,22.0,20.3,00.0,31.0,23.8,06.5,0000.0,0001.06,0001.34,0001.01
2022-11-16 12:02:00,,0834.1,5.01,0.00,22.0,20.2,00.0,31.0,23.7,06.6,0000.0,0001.04,0001.32,0000.99
2022-11-16 12:03:00,,0834.1,5.01,0.00,22.0,20.1,00.0,31.0,23.7,06.7,0000.0,0001.06,0001.37,0000.99
2022-11-16 12:04:00,,0834.1,5.00,0.00,21.9,20.0,00.0,31.0,23.7,06.7,0000.0,0001.06,0001.39,0000.99
2022-11-16 12:05:00,,0834.1,4.99,0.00,21.9,20.1,00.0,31.0,23.6,06.7,0000.0,0001.06,0001.47,0000.98
2022-11-16 12:06:00,,0834.1,5.00,0.00,21.9,20.1,00.0,30.9,23.7,06.7,0000.0,0001.06,0001.48,0000.98
2022-11-16 12:07:00,,0834.0,5.00,0.00,21.9,20.2,00.0,30.9,23.6,06.7,0000.0,0001.10,0001.57,0000.98
2022-11-16 12:08:00,,0834.1,5.01,0.00,21.9,20.5,00.0,30.9,23.7,06.7,0000.0,0001.11,0001.63,0000.97
2022-11-16 12:09:00,,0834.0,5.00,0.00,22.0,21.5,00.0,30.8,23.8,06.6,0000.0,0001.10,0001.64,0000.96
2022-11-16 12:10:00,,0834.1,4.98,0.00,22.1,22.3,00.0,30.8,24.1,06.6,0000.0,0001.11,0001.64,0000.96
2022-11-16 12:11:00,,0834.1,5.00,0.00,22.1,22.1,00.0,30.9,24.1,06.7,0000.0,0001.10,0001.61,0000.96
2022-11-16 12:12:00,,0834.0,5.00,0.00,22.1,21.8,00.0,30.9,24.1,06.6,0000.0,0001.09,0001.60,0000.96
2022-11-16 12:13:00,,0834.0,5.00,0.00,22.2,21.5,00.0,31.0,24.0,06.6,0000.0,0001.09,0001.63,0000.95
2022-11-16 12:14:00,,0834.1,5.00,0.00,22.1,21.2,00.0,31.0,24.0,06.5,0000.0,0001.08,0001.64,0000.94
2022-11-16 12:15:00,,0834.1,5.01,0.00,22.1,21.1,00.0,31.0,24.0,06.6,0000.0,0001.13,0001.99,0000.94
2022-11-16 12:16:00,,0834.1,5.01,0.00,22.1,20.9,00.0,31.0,23.9,06.5,0000.0,0001.13,0001.90,0000.95
2022-11-16 12:17:00,,0834.1,5.00,0.00,22.1,20.8,00.0,31.0,23.9,06.6,0000.0,0001.14,0001.90,0000.96
2022-11-16 12:18:00,,0834.1,4.99,0.00,22.1,20.7,00.0,31.0,23.9,06.6,0000.0,0001.11,0001.82,0000.96
2022-11-16 12:19:00,,0834.1,4.99,0.00,22.1,20.7,00.0,31.0,23.9,06.5,0000.0,0001.11,0001.80,0000.96
2022-11-16 12:20:00,,0834.1,5.00,0.00,22.1,20.6,00.0,31.0,23.9,06.5,0000.0,0001.11,0001.81,0000.97
2022-11-16 12:21:00,,0834.0,5.00,0.00,22.0,20.6,00.0,31.0,23.9,06.5,0000.0,0001.11,0001.80,0000.97
2022-11-16 12:22:00,,0834.1,5.01,0.00,22.0,20.5,00.0,31.0,23.8,06.5,0000.0,0001.13,0001.83,0000.97
2022-11-16 12:23:00,,0834.1,5.00,0.00,22.0,20.5,00.0,31.0,23.8,06.5,0000.0,0001.13,0001.82,0000.97
2022-11-16 12:24:00,,0834.0,5.00,0.00,22.0,20.5,00.0,31.0,23.8,06.6,0000.0,0001.12,0001.78,0000.97
2022-11-16 12:25:00,,0834.1,5.00,0.00,22.0,20.4,00.0,31.0,23.8,06.6,0000.0,0001.10,0001.73,0000.97
2022-11-16 12:26:00,,0834.1,5.01,0.00,22.0,21.0,00.0,30.9,23.9,06.6,0000.0,0001.06,0001.39,0000.97
2022-11-16 12:27:00,,0834.1,4.98,0.00,22.1,22.0,00.0,30.9,24.0,06.7,0000.0,0001.08,0001.42,0000.98
2022-11-16 12:28:00,,0834.1,5.00,0.00,22.2,22.3,00.0,30.9,24.2,06.7,0000.0,0001.09,0001.46,0000.98
2022-11-16 12:29:00,,0834.0,5.01,0.00,22.2,21.9,00.0,31.0,24.2,06.7,0000.0,0001.10,0001.47,0000.98
2022-11-16 12:30:00,,0834.1,5.00,0.00,22.2,21.6,00.0,31.0,24.1,06.6,0000.0,0001.10,0001.47,0000.98
2022-11-16 12:31:00,,0834.1,4.99,0.00,22.2,21.3,00.0,31.0,24.1,06.5,0000.0,0001.13,0001.51,0000.98
2022-11-16 12:32:00,,0834.0,5.00,0.00,22.2,21.1,00.0,31.0,24.0,06.4,0000.0,0001.13,0001.51,0000.98
2022-11-16 12:33:00,,0834.0,5.01,0.00,22.2,21.0,00.0,31.0,24.0,06.5,0000.0,0001.12,0001.52,0000.98
2022-11-16 12:34:00,,0834.1,5.01,0.00,22.1,20.8,00.0,31.0,24.0,06.6,0000.0,0001.13,0001.55,0000.98
2022-11-16 12:35:00,,0834.0,5.01,0.00,22.1,20.8,00.0,31.0,23.9,06.8,0000.0,0001.13,0001.53,0000.98
2022-11-16 12:36:00,,0834.1,4.99,0.00,22.1,20.6,00.0,31.0,23.9,06.8,0000.0,0001.15,0001.60,0000.99
2022-11-16 12:37:00,,0834.0,4.99,0.00,22.1,20.6,00.0,31.0,23.8,06.8,0000.0,0001.15,0001.59,0000.99
2022-11-16 12:38:00,,0834.0,5.00,0.00,22.0,20.5,00.0,31.0,23.8,06.9,0000.0,0001.12,0001.54,0000.98
2022-11-16 12:39:00,,0834.0,5.00,0.00,22.0,20.4,00.0,31.0,23.7,06.9,0000.0,0001.11,0001.52,0000.97
2022-11-16 12:40:00,,0834.0,5.00,0.00,22.0,20.4,00.0,31.0,23.7,06.9,0000.0,0001.10,0001.51,0000.96
2022-11-16 12:41:00,,0834.1,5.00,0.00,22.0,20.3,00.0,31.0,23.7,06.9,0000.0,0001.11,0002.05,0000.96
2022-11-16 12:42:00,,0834.0,5.01,0.00,22.0,20.9,00.0,30.9,23.8,06.8,0000.0,0001.09,0002.36,0000.94
2022-11-16 12:43:00,,0834.1,5.00,0.00,22.1,21.9,00.0,30.9,24.0,06.9,0000.0,0001.10,0002.39,0000.94
2022-11-16 12:44:00,,0834.1,4.98,0.00,22.2,22.2,00.0,30.9,24.2,06.9,0000.0,0001.10,0002.38,0000.95
2022-11-16 12:45:00,,0834.1,5.00,0.00,22.2,21.8,00.0,31.0,24.1,06.9,0000.0,0001.08,0002.34,0000.94
2022-11-16 12:46:00,,0834.0,5.01,0.00,22.2,21.5,00.0,31.0,24.1,06.9,0000.0,0001.08,0002.92,0000.94
2022-11-16 12:47:00,,0834.1,5.00,0.00,22.2,21.2,00.0,31.0,24.0,06.9,0000.0,0001.07,0003.57,0000.94
2022-11-16 12:48:00,,0834.1,4.99,0.00,22.1,21.0,00.0,31.0,23.9,06.9,0000.0,0001.07,0003.60,0000.93
2022-11-16 12:49:00,,0834.1,5.00,0.00,22.1,20.8,00.0,31.0,23.9,06.9,0000.0,0001.09,0003.67,0000.93
2022-11-16 12:50:00,,0834.1,5.00,0.00,22.1,20.7,00.0,31.0,23.9,06.9,0000.0,0001.09,0003.65,0000.94
2022-11-16 12:51:00,,0834.1,5.00,0.00,22.1,20.6,00.0,31.0,23.8,06.9,0000.0,0001.10,0003.67,0000.95
2022-11-16 12:52:00,,0834.1,5.00,0.00,22.0,20.5,00.0,31.0,23.8,06.9,0000.0,0001.08,0003.10,0000.94
2022-11-16 12:53:00,,0834.0,5.00,0.00,22.0,20.4,00.0,31.0,23.7,06.9,0000.0,0001.07,0002.72,0000.94
2022-11-16 12:54:00,,0834.0,5.00,0.00,22.0,20.4,00.0,31.0,23.7,06.8,0000.0,0001.06,0002.71,0000.93
2022-11-16 12:55:00,,0834.0,5.00,0.00,22.0,20.3,00.0,31.0,23.7,06.9,0000.0,0001.07,0002.73,0000.93
2022-11-16 12:56:00,,0834.1,5.00,0.00,21.9,20.5,00.0,30.9,23.7,06.9,0000.0,0001.07,0002.75,0000.92
2022-11-16 12:57:00,,0834.0,5.01,0.00,22.0,21.5,00.0,30.8,23.9,06.9,0000.0,0001.08,0002.39,0000.92
2022-11-16 12:58:00,,0834.1,4.97,0.00,22.1,22.1,00.0,30.9,24.1,06.8,0000.0,0001.07,0001.52,0000.92
2022-11-16 12:59:00,,0834.1,5.00,0.00,22.2,21.9,00.0,30.9,24.1,06.8,0000.0,0001.07,0001.46,0000.92
